Home > Weather > Lillestrøm > Past weeks

Flag for Norway Past Weather in Lillestrøm, Norway — Yesterday and Last 2 Weeks

Now
65 °F

Mild.


Feels Like: 65 °F
Forecast: 59 / 68 °F
Wind: 2 mph from Northeast

Location: Oslo-Blindern

Current Time: Jul 25, 2016 at 8:17:35 AM

Latest Report: Jul 25, 2016 at 7:00 AM


Visibility: N/A

Pressure: 30.04 "Hg

Humidity: 85%

Dew Point: 61 °F

Location of LillestrømLocation

Past Weather in Lillestrøm — Graph

°F

Lillestrøm Temperature Yesterday

Maximum temperature yesterday: 78 °F (at 4:00 PM)
Minimum temperature yesterday: 59 °F (at 5:00 AM)
Average temperature yesterday: 69 °F

High & Low Weather Summary for the Past Weeks

 TemperatureHumidityPressure
High82 °F (Jul 21, 3:00 PM)97% (Jul 13, 1:00 AM)30.13 "Hg (Jul 13, 1:00 AM)
Low49 °F (Jul 17, 5:00 AM)37% (Jul 22, 7:00 PM)29.41 "Hg (Jul 11, 11:00 AM)
Average65 °F72%29.86 "Hg
* Reported Jul 10 7:00 AM — Jul 25 7:00 AM, Lillestrøm, Weather by CustomWeather, © 2016

Note: Actual official high and low records may vary slightly from our data, if they occured in-between our weather recording intervals... More about our weather records

Advertising

Lillestrøm Weather History for the Previous 24 Hours

Scroll right to see more
 ConditionsComfort  
Time TempWeatherWind HumidityBarometerVisibility
7:00 AM
Mon, Jul 25
65 °FMild.2 mph85%30.04 "HgN/A
6:00 AM62 °FCool.2 mph91%30.05 "HgN/A
5:00 AM62 °FCool.3 mph90%30.06 "HgN/A
4:00 AM61 °FCool.2 mph91%30.06 "HgN/A
3:00 AM62 °FCool.1 mph89%30.07 "HgN/A
2:00 AM64 °FMild.1 mph83%30.07 "HgN/A
1:00 AM65 °FMild.2 mph79%30.08 "HgN/A
12:00 AM66 °FMild.2 mph76%30.07 "HgN/A
11:00 PM
Sun, Jul 24
67 °FMild.2 mph73%30.07 "HgN/A
10:00 PM70 °FMild.3 mph67%30.07 "HgN/A
9:00 PM72 °FMild.3 mph64%30.06 "HgN/A
8:00 PM74 °FMild.5 mph59%30.05 "HgN/A
7:00 PM75 °FMild.5 mph56%30.05 "HgN/A
6:00 PM76 °FMild.5 mph54%30.06 "HgN/A
5:00 PM76 °FMild.3 mph58%30.07 "HgN/A
4:00 PM78 °FWarm.5 mph47%30.07 "HgN/A
3:00 PM78 °FWarm.2 mph45%30.09 "HgN/A
2:00 PM77 °FWarm.3 mph55%30.10 "HgN/A
1:00 PM74 °FMild.2 mph63%30.11 "HgN/A
12:00 PM73 °FMild.2 mph68%30.12 "HgN/A
11:00 AM69 °FPartly sunny.2 mph77%30.12 "Hg47 mi
10:00 AM69 °FMild.2 mph74%30.12 "HgN/A
9:00 AM66 °FMild.2 mph80%30.12 "HgN/A
8:00 AM65 °FPartly sunny.1 mph82%30.12 "Hg47 mi
Weather by CustomWeather, © 2016

See weather overviewHow to use our weather pages